Home   Weather   Bury   Past weeks

Flag for United Kingdom Past Weather in Bury, England, United Kingdom — Yesterday and Last 2 Weeks

Now
46 °F

Passing clouds.


Feels Like: 46 °F
Forecast: 39 / 56 °F
Wind: 2 mph from East

Location: Manchester Airport

Current Time: Apr 29, 2017 at 12:55:04 am

Latest Report: Apr 29, 2017 at 12:20 am


Visibility: N/A

Pressure: 29.98 "Hg

Humidity: 87%

Dew Point: 43 °F

Location of BuryLocation

Past Weather in Bury — Graph

°F

Bury Temperature Yesterday

Maximum temperature yesterday: 54 °F (at 12:20 pm)
Minimum temperature yesterday: 43 °F (at 2:50 am)
Average temperature yesterday: 48 °F

High & Low Weather Summary for the Past Weeks

 TemperatureHumidityPressure
High55 °F (Apr 14, 2:20 pm)100% (Apr 14, 9:50 am)30.63 "Hg (Apr 14, 9:50 am)
Low30 °F (Apr 25, 5:20 am)37% (Apr 24, 6:20 pm)29.89 "Hg (Apr 14, 5:20 pm)
Average47 °F74%30.22 "Hg
* Reported Apr 13 11:20 pm — Apr 28 11:20 pm, Bury, Weather by CustomWeather, © 2017

Note: Actual official high and low records may vary slightly from our data, if they occured in-between our weather recording intervals... More about our weather records

Advertising

Bury Weather History for the Previous 24 Hours

Scroll right to see more
 ConditionsComfort  
Time TempWeatherWind HumidityBarometerVisibility
11:20 pm
Fri, Apr 28
48 °FOvercast.2 mph76%30.01 "HgN/A
10:50 pm48 °FOvercast.3 mph76%30.01 "HgN/A
10:20 pm48 °FPassing clouds.5 mph76%30.01 "HgN/A
9:50 pm48 °FMostly cloudy.6 mph76%30.01 "HgN/A
9:20 pm48 °FOvercast.5 mph82%30.01 "HgN/A
8:50 pm50 °FPassing clouds.5 mph71%29.98 "HgN/A
8:20 pm50 °FScattered clouds.8 mph76%29.98 "HgN/A
7:50 pm50 °FBroken clouds.6 mph76%29.98 "HgN/A
7:20 pm50 °FPartly sunny.7 mph76%29.98 "HgN/A
6:50 pm50 °FBroken clouds.8 mph76%29.98 "HgN/A
6:20 pm50 °FLight rain. Mostly cloudy.7 mph76%29.98 "HgN/A
5:50 pm52 °FPartly sunny.8 mph62%29.98 "HgN/A
5:20 pm52 °FOvercast.7 mph67%30.01 "HgN/A
4:50 pm52 °FOvercast.7 mph67%30.01 "HgN/A
4:20 pm52 °FOvercast.8 mph67%30.01 "HgN/A
3:50 pm52 °FOvercast.7 mph62%30.01 "HgN/A
2:50 pm52 °FOvercast.8 mph58%30.01 "HgN/A
1:50 pm54 °FPartly sunny.7 mph54%30.01 "HgN/A
1:20 pm54 °FPartly sunny.8 mph54%30.01 "HgN/A
12:50 pm54 °FPartly sunny.6 mph54%30.01 "HgN/A
12:20 pm54 °FPartly sunny.3 mph51%30.01 "HgN/A
11:50 am52 °FPartly sunny.2 mph54%30.04 "HgN/A
11:20 am52 °FPartly sunny.5 mph54%30.04 "HgN/A
10:50 am52 °FPartly sunny.3 mph54%30.04 "HgN/A
10:20 am50 °FPassing clouds.2 mph58%30.04 "HgN/A
9:50 am48 °FPartly sunny.3 mph66%30.04 "HgN/A
9:20 am48 °FScattered clouds.3 mph71%30.04 "HgN/A
8:20 am45 °FQuite cool.2 mph76%30.04 "HgN/A
7:50 am45 °FQuite cool.3 mph76%30.04 "HgN/A
7:20 am45 °FQuite cool.2 mph81%30.04 "HgN/A
6:50 am45 °FQuite cool.2 mph87%30.04 "HgN/A
6:20 am43 °FPassing clouds.2 mph87%30.04 "HgN/A
5:50 am43 °FPartly sunny.2 mph93%30.04 "HgN/A
5:20 am43 °FOvercast.2 mph93%30.04 "HgN/A
4:50 am43 °FMostly cloudy.1 mph93%30.04 "HgN/A
4:20 am43 °FLight rain. Mostly cloudy.5 mph93%30.04 "HgN/A
3:50 am43 °FLight rain. Overcast.5 mph100%30.04 "HgN/A
3:20 am43 °FMostly cloudy.2 mph93%30.04 "HgN/A
2:50 am43 °FLight rain. Mostly cloudy.3 mph93%30.04 "HgN/A
2:20 am45 °FRain. Mostly cloudy.6 mph87%30.04 "Hg2 mi
1:50 am45 °FOvercast.5 mph87%30.04 "HgN/A
1:20 am45 °FOvercast.6 mph87%30.04 "HgN/A
12:50 am46 °FMostly cloudy.6 mph87%30.04 "HgN/A
12:20 am46 °FMostly cloudy.5 mph87%30.04 "HgN/A
Weather by CustomWeather, © 2017

See weather overviewHow to use our weather pages